owner,sensor,date,latitude,longitude,relative_humidity,qcFlag 
COMPS,ioos:station:USF.COMPS:C13:1,2019-05-10T16:35:00,26.0630,-83.0730,87.8,11111222 
COMPS,ioos:station:USF.COMPS:C13:1,2019-05-10T17:35:00,26.0630,-83.0730,87.71,11111222 
COMPS,ioos:station:USF.COMPS:C13:1,2019-05-10T18:35:00,26.0630,-83.0730,86.21,11111222 
COMPS,ioos:station:USF.COMPS:C13:1,2019-05-10T19:35:00,26.0630,-83.0730,87.46,11111222 
COMPS,ioos:station:USF.COMPS:C13:1,2019-05-10T20:35:00,26.0630,-83.0730,87.26,11111222 
COMPS,ioos:station:USF.COMPS:C13:1,2019-05-10T21:35:00,26.0630,-83.0730,85.7,11111222 
COMPS,ioos:station:USF.COMPS:C13:1,2019-05-10T22:35:00,26.0630,-83.0730,85.09,11111222 
COMPS,ioos:station:USF.COMPS:C13:1,2019-05-10T23:35:00,26.0630,-83.0730,84.47,11111222 
COMPS,ioos:station:USF.COMPS:C13:1,2019-05-11T00:35:00,26.0630,-83.0730,85.64,11111222 
COMPS,ioos:station:USF.COMPS:C13:1,2019-05-11T01:35:00,26.0630,-83.0730,85.4,11111222 
COMPS,ioos:station:USF.COMPS:C13:1,2019-05-11T02:35:00,26.0630,-83.0730,86.39,11111222 
COMPS,ioos:station:USF.COMPS:C13:1,2019-05-11T03:35:00,26.0630,-83.0730,87.99,11111222 
COMPS,ioos:station:USF.COMPS:C13:1,2019-05-11T04:35:00,26.0630,-83.0730,86.05,11111222 
COMPS,ioos:station:USF.COMPS:C13:1,2019-05-11T05:35:00,26.0630,-83.0730,87.07,11111222 
COMPS,ioos:station:USF.COMPS:C13:1,2019-05-11T06:35:00,26.0630,-83.0730,88.39,11111222 
COMPS,ioos:station:USF.COMPS:C13:1,2019-05-11T07:35:00,26.0630,-83.0730,88.93,11111222 
COMPS,ioos:station:USF.COMPS:C13:1,2019-05-11T08:35:00,26.0630,-83.0730,87.62,11111222 
COMPS,ioos:station:USF.COMPS:C13:1,2019-05-11T09:35:00,26.0630,-83.0730,85.24,11111222 
COMPS,ioos:station:USF.COMPS:C13:1,2019-05-11T10:35:00,26.0630,-83.0730,85.91,11111222 
COMPS,ioos:station:USF.COMPS:C13:1,2019-05-11T11:35:00,26.0630,-83.0730,88.67,11111222 
COMPS,ioos:station:USF.COMPS:C13:1,2019-05-11T12:35:00,26.0630,-83.0730,85.14,11111222 
COMPS,ioos:station:USF.COMPS:C13:1,2019-05-13T13:35:00,26.0630,-83.0730,87.93,11111222 
COMPS,ioos:station:USF.COMPS:C13:1,2019-05-13T14:35:00,26.0630,-83.0730,86.55,11111222 
COMPS,ioos:station:USF.COMPS:C13:1,2019-05-13T15:35:00,26.0630,-83.0730,87.89,11111222 
COMPS,ioos:station:USF.COMPS:C13:1,2019-05-13T16:35:00,26.0630,-83.0730,88.63,11111222 
COMPS,ioos:station:USF.COMPS:C13:1,2019-05-13T17:35:00,26.0630,-83.0730,86.83,11111222 
COMPS,ioos:station:USF.COMPS:C13:1,2019-05-13T18:35:00,26.0630,-83.0730,86.99,11111222 
COMPS,ioos:station:USF.COMPS:C13:1,2019-05-13T19:35:00,26.0630,-83.0730,88.72,11111222 
COMPS,ioos:station:USF.COMPS:C13:1,2019-05-13T20:35:00,26.0630,-83.0730,88.14,11111222 
COMPS,ioos:station:USF.COMPS:C13:1,2019-05-13T21:35:00,26.0630,-83.0730,79.43,11111222 
COMPS,ioos:station:USF.COMPS:C13:1,2019-05-13T22:35:00,26.0630,-83.0730,88.03,11111222 
COMPS,ioos:station:USF.COMPS:C13:1,2019-05-13T23:35:00,26.0630,-83.0730,76.29,11111222 
COMPS,ioos:station:USF.COMPS:C13:1,2019-05-14T00:35:00,26.0630,-83.0730,72.42,11111222 
COMPS,ioos:station:USF.COMPS:C13:1,2019-05-14T01:35:00,26.0630,-83.0730,76.59,11111222 
COMPS,ioos:station:USF.COMPS:C13:1,2019-05-14T02:35:00,26.0630,-83.0730,79.19,11111222 
COMPS,ioos:station:USF.COMPS:C13:1,2019-05-14T03:35:00,26.0630,-83.0730,82.26,11111222 
COMPS,ioos:station:USF.COMPS:C13:1,2019-05-14T04:35:00,26.0630,-83.0730,83.01,11111222 
COMPS,ioos:station:USF.COMPS:C13:1,2019-05-14T05:35:00,26.0630,-83.0730,83.64,11111222 
COMPS,ioos:station:USF.COMPS:C13:1,2019-05-14T06:35:00,26.0630,-83.0730,83.38,11111222 
COMPS,ioos:station:USF.COMPS:C13:1,2019-05-14T07:35:00,26.0630,-83.0730,84.28,11111222 
COMPS,ioos:station:USF.COMPS:C13:1,2019-05-14T08:35:00,26.0630,-83.0730,84.75,11111222 
COMPS,ioos:station:USF.COMPS:C13:1,2019-05-14T09:35:00,26.0630,-83.0730,85.72,11111222 
COMPS,ioos:station:USF.COMPS:C13:1,2019-05-14T10:35:00,26.0630,-83.0730,86.12,11111222 
COMPS,ioos:station:USF.COMPS:C13:1,2019-05-14T11:35:00,26.0630,-83.0730,86.59,11111222 
COMPS,ioos:station:USF.COMPS:C13:1,2019-05-14T12:35:00,26.0630,-83.0730,85.98,11111222 
COMPS,ioos:station:USF.COMPS:C13:1,2019-05-14T13:35:00,26.0630,-83.0730,86.37,11111222 
COMPS,ioos:station:USF.COMPS:C13:1,2019-05-14T14:35:00,26.0630,-83.0730,87.21,11111222 
COMPS,ioos:station:USF.COMPS:C13:1,2019-05-14T15:35:00,26.0630,-83.0730,88.07,11111222 
COMPS,ioos:station:USF.COMPS:C13:1,2019-05-14T16:35:00,26.0630,-83.0730,87.77,11111222 
COMPS,ioos:station:USF.COMPS:C13:1,2019-05-14T17:35:00,26.0630,-83.0730,77.75,11111222 
COMPS,ioos:station:USF.COMPS:C13:1,2019-05-14T18:35:00,26.0630,-83.0730,72.37,11111222 
COMPS,ioos:station:USF.COMPS:C13:1,2019-05-14T19:35:00,26.0630,-83.0730,76.06,11111222 
COMPS,ioos:station:USF.COMPS:C13:1,2019-05-14T20:35:00,26.0630,-83.0730,77.24,11111222 
COMPS,ioos:station:USF.COMPS:C13:1,2019-05-14T21:35:00,26.0630,-83.0730,79.56,11111222 
COMPS,ioos:station:USF.COMPS:C13:1,2019-05-14T22:35:00,26.0630,-83.0730,77.54,11111222 
COMPS,ioos:station:USF.COMPS:C13:1,2019-05-14T23:35:00,26.0630,-83.0730,77.65,11111222 
COMPS,ioos:station:USF.COMPS:C13:1,2019-05-15T00:35:00,26.0630,-83.0730,79.93,11111222 
COMPS,ioos:station:USF.COMPS:C13:1,2019-05-15T01:35:00,26.0630,-83.0730,82.94,11111222 
COMPS,ioos:station:USF.COMPS:C13:1,2019-05-15T02:35:00,26.0630,-83.0730,85.33,11111222 
COMPS,ioos:station:USF.COMPS:C13:1,2019-05-15T03:35:00,26.0630,-83.0730,86.14,11111222 
COMPS,ioos:station:USF.COMPS:C13:1,2019-05-15T04:35:00,26.0630,-83.0730,86.01,11111222 
COMPS,ioos:station:USF.COMPS:C13:1,2019-05-15T05:35:00,26.0630,-83.0730,86.67,11111222 
COMPS,ioos:station:USF.COMPS:C13:1,2019-05-15T06:35:00,26.0630,-83.0730,86.66,11111222 
COMPS,ioos:station:USF.COMPS:C13:1,2019-05-15T07:35:00,26.0630,-83.0730,84.03,11111222 
COMPS,ioos:station:USF.COMPS:C13:1,2019-05-15T08:35:00,26.0630,-83.0730,82.69,11111222 
COMPS,ioos:station:USF.COMPS:C13:1,2019-05-15T09:35:00,26.0630,-83.0730,83.0,11111222 
COMPS,ioos:station:USF.COMPS:C13:1,2019-05-15T10:35:00,26.0630,-83.0730,84.18,11111222 
COMPS,ioos:station:USF.COMPS:C13:1,2019-05-15T11:35:00,26.0630,-83.0730,83.49,11111222 
COMPS,ioos:station:USF.COMPS:C13:1,2019-05-15T12:35:00,26.0630,-83.0730,83.78,11111222 
COMPS,ioos:station:USF.COMPS:C13:1,2019-05-15T13:35:00,26.0630,-83.0730,83.68,11111222 
COMPS,ioos:station:USF.COMPS:C13:1,2019-05-15T14:35:00,26.0630,-83.0730,82.41,11111222 
COMPS,ioos:station:USF.COMPS:C13:1,2019-05-15T15:35:00,26.0630,-83.0730,81.03,11111222 
COMPS,ioos:station:USF.COMPS:C13:1,2019-05-15T16:35:00,26.0630,-83.0730,78.05,11111222 
COMPS,ioos:station:USF.COMPS:C13:1,2019-05-15T17:35:00,26.0630,-83.0730,77.47,11111222 
COMPS,ioos:station:USF.COMPS:C13:1,2019-05-15T18:35:00,26.0630,-83.0730,74.47,11111222 
COMPS,ioos:station:USF.COMPS:C13:1,2019-05-15T19:35:00,26.0630,-83.0730,74.86,11111222 
COMPS,ioos:station:USF.COMPS:C13:1,2019-05-15T20:35:00,26.0630,-83.0730,71.66,11111222 
COMPS,ioos:station:USF.COMPS:C13:1,2019-05-15T21:35:00,26.0630,-83.0730,74.11,11111222 
COMPS,ioos:station:USF.COMPS:C13:1,2019-05-15T22:35:00,26.0630,-83.0730,75.47,11111222 
COMPS,ioos:station:USF.COMPS:C13:1,2019-05-15T23:35:00,26.0630,-83.0730,76.09,11111222 
COMPS,ioos:station:USF.COMPS:C13:1,2019-05-16T00:35:00,26.0630,-83.0730,81.3,11111222 
COMPS,ioos:station:USF.COMPS:C13:1,2019-05-16T01:35:00,26.0630,-83.0730,81.01,11111222 
COMPS,ioos:station:USF.COMPS:C13:1,2019-05-16T02:35:00,26.0630,-83.0730,79.23,11111222 
COMPS,ioos:station:USF.COMPS:C13:1,2019-05-16T03:35:00,26.0630,-83.0730,78.55,11111222 
COMPS,ioos:station:USF.COMPS:C13:1,2019-05-16T04:35:00,26.0630,-83.0730,77.57,11111222 
COMPS,ioos:station:USF.COMPS:C13:1,2019-05-16T05:35:00,26.0630,-83.0730,77.36,11111222 
COMPS,ioos:station:USF.COMPS:C13:1,2019-05-16T06:35:00,26.0630,-83.0730,76.29,11111222 
COMPS,ioos:station:USF.COMPS:C13:1,2019-05-16T07:35:00,26.0630,-83.0730,74.95,11111222 
COMPS,ioos:station:USF.COMPS:C13:1,2019-05-16T08:35:00,26.0630,-83.0730,74.41,11111222 
COMPS,ioos:station:USF.COMPS:C13:1,2019-05-16T09:35:00,26.0630,-83.0730,73.29,11111222 
COMPS,ioos:station:USF.COMPS:C13:1,2019-05-16T10:35:00,26.0630,-83.0730,73.99,11111222 
COMPS,ioos:station:USF.COMPS:C13:1,2019-05-16T11:35:00,26.0630,-83.0730,75.4,11111222 
COMPS,ioos:station:USF.COMPS:C13:1,2019-05-16T12:35:00,26.0630,-83.0730,77.13,11111222 
COMPS,ioos:station:USF.COMPS:C13:1,2019-05-16T13:35:00,26.0630,-83.0730,77.71,11111222 
COMPS,ioos:station:USF.COMPS:C13:1,2019-05-16T14:35:00,26.0630,-83.0730,75.72,11111222 
COMPS,ioos:station:USF.COMPS:C13:1,2019-05-16T15:35:00,26.0630,-83.0730,76.21,11111222 
COMPS,ioos:station:USF.COMPS:C13:1,2019-05-16T16:35:00,26.0630,-83.0730,80.43,11111222 
COMPS,ioos:station:USF.COMPS:C13:1,2019-05-16T17:35:00,26.0630,-83.0730,79.27,11111222 
COMPS,ioos:station:USF.COMPS:C13:1,2019-05-16T18:35:00,26.0630,-83.0730,78.21,11111222 
COMPS,ioos:station:USF.COMPS:C13:1,2019-05-16T19:35:00,26.0630,-83.0730,76.13,11111222 
COMPS,ioos:station:USF.COMPS:C13:1,2019-05-16T20:35:00,26.0630,-83.0730,73.86,11111222 
COMPS,ioos:station:USF.COMPS:C13:1,2019-05-16T21:35:00,26.0630,-83.0730,74.2,11111222 
COMPS,ioos:station:USF.COMPS:C13:1,2019-05-16T22:35:00,26.0630,-83.0730,74.99,11111222 
COMPS,ioos:station:USF.COMPS:C13:1,2019-05-16T23:35:00,26.0630,-83.0730,73.72,11111222 
COMPS,ioos:station:USF.COMPS:C13:1,2019-05-17T00:35:00,26.0630,-83.0730,82.55,11111222 
COMPS,ioos:station:USF.COMPS:C13:1,2019-05-17T01:35:00,26.0630,-83.0730,79.35,11111222 
COMPS,ioos:station:USF.COMPS:C13:1,2019-05-17T02:35:00,26.0630,-83.0730,75.99,11111222 
COMPS,ioos:station:USF.COMPS:C13:1,2019-05-17T03:35:00,26.0630,-83.0730,74.23,11111222 
COMPS,ioos:station:USF.COMPS:C13:1,2019-05-17T04:35:00,26.0630,-83.0730,72.29,11111222 
COMPS,ioos:station:USF.COMPS:C13:1,2019-05-17T05:35:00,26.0630,-83.0730,72.96,11111222 
COMPS,ioos:station:USF.COMPS:C13:1,2019-05-17T06:35:00,26.0630,-83.0730,76.06,11111222 
COMPS,ioos:station:USF.COMPS:C13:1,2019-05-17T07:35:00,26.0630,-83.0730,76.95,11111222 
COMPS,ioos:station:USF.COMPS:C13:1,2019-05-17T08:35:00,26.0630,-83.0730,76.36,11111222 
COMPS,ioos:station:USF.COMPS:C13:1,2019-05-17T09:35:00,26.0630,-83.0730,77.14,11111222 
COMPS,ioos:station:USF.COMPS:C13:1,2019-05-17T10:35:00,26.0630,-83.0730,78.67,11111222 
COMPS,ioos:station:USF.COMPS:C13:1,2019-05-17T11:35:00,26.0630,-83.0730,81.36,11111222 
COMPS,ioos:station:USF.COMPS:C13:1,2019-05-17T12:35:00,26.0630,-83.0730,81.42,11111222 
COMPS,ioos:station:USF.COMPS:C13:1,2019-05-17T13:35:00,26.0630,-83.0730,81.77,11111222 
COMPS,ioos:station:USF.COMPS:C13:1,2019-05-17T14:35:00,26.0630,-83.0730,80.04,11111222 
COMPS,ioos:station:USF.COMPS:C13:1,2019-05-17T15:35:00,26.0630,-83.0730,79.44,11111222 
COMPS,ioos:station:USF.COMPS:C13:1,2019-05-17T16:35:00,26.0630,-83.0730,78.08,11111222 
COMPS,ioos:station:USF.COMPS:C13:1,2019-05-17T17:35:00,26.0630,-83.0730,73.74,11111222 
COMPS,ioos:station:USF.COMPS:C13:1,2019-05-17T18:35:00,26.0630,-83.0730,71.95,11111222 
COMPS,ioos:station:USF.COMPS:C13:1,2019-05-17T19:35:00,26.0630,-83.0730,68.78,11111222 
COMPS,ioos:station:USF.COMPS:C13:1,2019-05-17T20:35:00,26.0630,-83.0730,65.64,11111222 
COMPS,ioos:station:USF.COMPS:C13:1,2019-05-17T21:35:00,26.0630,-83.0730,67.48,11111222 
COMPS,ioos:station:USF.COMPS:C13:1,2019-05-17T22:35:00,26.0630,-83.0730,67.62,11111222 
COMPS,ioos:station:USF.COMPS:C13:1,2019-05-17T23:35:00,26.0630,-83.0730,68.5,11111222 
COMPS,ioos:station:USF.COMPS:C13:1,2019-05-18T00:35:00,26.0630,-83.0730,69.84,11111222 
COMPS,ioos:station:USF.COMPS:C13:1,2019-05-18T01:35:00,26.0630,-83.0730,72.36,11111222 
COMPS,ioos:station:USF.COMPS:C13:1,2019-05-18T02:35:00,26.0630,-83.0730,75.63,11111222 
COMPS,ioos:station:USF.COMPS:C13:1,2019-05-18T03:35:00,26.0630,-83.0730,78.1,11111222 
COMPS,ioos:station:USF.COMPS:C13:1,2019-05-18T04:35:00,26.0630,-83.0730,79.65,11111222 
COMPS,ioos:station:USF.COMPS:C13:1,2019-05-18T05:35:00,26.0630,-83.0730,78.55,11111222 
COMPS,ioos:station:USF.COMPS:C13:1,2019-05-18T06:35:00,26.0630,-83.0730,78.87,11111222 
COMPS,ioos:station:USF.COMPS:C13:1,2019-05-18T07:35:00,26.0630,-83.0730,78.83,11111222 
COMPS,ioos:station:USF.COMPS:C13:1,2019-05-18T08:35:00,26.0630,-83.0730,79.88,11111222 
COMPS,ioos:station:USF.COMPS:C13:1,2019-05-18T09:35:00,26.0630,-83.0730,79.23,11111222 
COMPS,ioos:station:USF.COMPS:C13:1,2019-05-18T10:35:00,26.0630,-83.0730,78.53,11111222 
COMPS,ioos:station:USF.COMPS:C13:1,2019-05-18T11:35:00,26.0630,-83.0730,78.25,11111222 
COMPS,ioos:station:USF.COMPS:C13:1,2019-05-18T12:35:00,26.0630,-83.0730,79.21,11111222 
COMPS,ioos:station:USF.COMPS:C13:1,2019-05-18T13:35:00,26.0630,-83.0730,78.41,11111222 
COMPS,ioos:station:USF.COMPS:C13:1,2019-05-18T14:35:00,26.0630,-83.0730,77.51,11111222 
COMPS,ioos:station:USF.COMPS:C13:1,2019-05-18T15:35:00,26.0630,-83.0730,76.19,11111222 
COMPS,ioos:station:USF.COMPS:C13:1,2019-05-18T16:35:00,26.0630,-83.0730,74.66,11111222 
COMPS,ioos:station:USF.COMPS:C13:1,2019-05-18T17:35:00,26.0630,-83.0730,74.94,11111222 
COMPS,ioos:station:USF.COMPS:C13:1,2019-05-18T18:35:00,26.0630,-83.0730,71.07,11111222 
COMPS,ioos:station:USF.COMPS:C13:1,2019-05-18T19:35:00,26.0630,-83.0730,70.54,11111222 
COMPS,ioos:station:USF.COMPS:C13:1,2019-05-18T20:35:00,26.0630,-83.0730,67.17,11111222 
COMPS,ioos:station:USF.COMPS:C13:1,2019-05-18T21:35:00,26.0630,-83.0730,67.41,11111222 
COMPS,ioos:station:USF.COMPS:C13:1,2019-05-18T22:35:00,26.0630,-83.0730,65.03,11111222 
COMPS,ioos:station:USF.COMPS:C13:1,2019-05-18T23:35:00,26.0630,-83.0730,65.65,11111222 
COMPS,ioos:station:USF.COMPS:C13:1,2019-05-19T00:35:00,26.0630,-83.0730,68.71,11111222 
COMPS,ioos:station:USF.COMPS:C13:1,2019-05-19T01:35:00,26.0630,-83.0730,69.85,11111222 
COMPS,ioos:station:USF.COMPS:C13:1,2019-05-19T02:35:00,26.0630,-83.0730,71.82,11111222 
COMPS,ioos:station:USF.COMPS:C13:1,2019-05-19T03:35:00,26.0630,-83.0730,74.12,11111222 
COMPS,ioos:station:USF.COMPS:C13:1,2019-05-19T04:35:00,26.0630,-83.0730,72.4,11111222 
COMPS,ioos:station:USF.COMPS:C13:1,2019-05-19T05:35:00,26.0630,-83.0730,73.59,11111222 
COMPS,ioos:station:USF.COMPS:C13:1,2019-05-19T06:35:00,26.0630,-83.0730,76.55,11111222 
COMPS,ioos:station:USF.COMPS:C13:1,2019-05-19T07:35:00,26.0630,-83.0730,76.67,11111222 
COMPS,ioos:station:USF.COMPS:C13:1,2019-05-19T08:35:00,26.0630,-83.0730,79.03,11111222 
COMPS,ioos:station:USF.COMPS:C13:1,2019-05-19T09:35:00,26.0630,-83.0730,83.32,11111222 
COMPS,ioos:station:USF.COMPS:C13:1,2019-05-19T10:35:00,26.0630,-83.0730,83.75,11111222 
COMPS,ioos:station:USF.COMPS:C13:1,2019-05-19T11:35:00,26.0630,-83.0730,87.46,11111222 
COMPS,ioos:station:USF.COMPS:C13:1,2019-05-19T12:35:00,26.0630,-83.0730,88.22,11111222 
COMPS,ioos:station:USF.COMPS:C13:1,2019-05-19T13:35:00,26.0630,-83.0730,87.51,11111222 
COMPS,ioos:station:USF.COMPS:C13:1,2019-05-19T14:35:00,26.0630,-83.0730,86.17,11111222 
COMPS,ioos:station:USF.COMPS:C13:1,2019-05-19T15:35:00,26.0630,-83.0730,86.53,11111222 
COMPS,ioos:station:USF.COMPS:C13:1,2019-05-19T16:35:00,26.0630,-83.0730,85.89,11111222 
COMPS,ioos:station:USF.COMPS:C13:1,2019-05-19T17:35:00,26.0630,-83.0730,86.05,11111222 
COMPS,ioos:station:USF.COMPS:C13:1,2019-05-19T18:35:00,26.0630,-83.0730,85.74,11111222 
COMPS,ioos:station:USF.COMPS:C13:1,2019-05-19T19:35:00,26.0630,-83.0730,84.47,11111222 
COMPS,ioos:station:USF.COMPS:C13:1,2019-05-19T20:35:00,26.0630,-83.0730,83.02,11111222 
COMPS,ioos:station:USF.COMPS:C13:1,2019-05-19T21:35:00,26.0630,-83.0730,80.2,11111222 
COMPS,ioos:station:USF.COMPS:C13:1,2019-05-19T22:35:00,26.0630,-83.0730,78.23,11111222 
COMPS,ioos:station:USF.COMPS:C13:1,2019-05-19T23:35:00,26.0630,-83.0730,77.53,11111222 
COMPS,ioos:station:USF.COMPS:C13:1,2019-05-20T00:35:00,26.0630,-83.0730,81.02,11111222 
COMPS,ioos:station:USF.COMPS:C13:1,2019-05-20T01:35:00,26.0630,-83.0730,82.3,11111222 
COMPS,ioos:station:USF.COMPS:C13:1,2019-05-20T02:35:00,26.0630,-83.0730,81.86,11111222 
COMPS,ioos:station:USF.COMPS:C13:1,2019-05-20T03:35:00,26.0630,-83.0730,82.06,11111222 
COMPS,ioos:station:USF.COMPS:C13:1,2019-05-20T04:35:00,26.0630,-83.0730,81.65,11111222 
COMPS,ioos:station:USF.COMPS:C13:1,2019-05-20T05:35:00,26.0630,-83.0730,82.41,11111222 
COMPS,ioos:station:USF.COMPS:C13:1,2019-05-20T06:35:00,26.0630,-83.0730,83.35,11111222 
COMPS,ioos:station:USF.COMPS:C13:1,2019-05-20T07:35:00,26.0630,-83.0730,85.13,11111222 
COMPS,ioos:station:USF.COMPS:C13:1,2019-05-20T08:35:00,26.0630,-83.0730,82.46,11111222 
COMPS,ioos:station:USF.COMPS:C13:1,2019-05-20T09:35:00,26.0630,-83.0730,81.59,11111222 
COMPS,ioos:station:USF.COMPS:C13:1,2019-05-20T10:35:00,26.0630,-83.0730,80.96,11111222 
COMPS,ioos:station:USF.COMPS:C13:1,2019-05-20T11:35:00,26.0630,-83.0730,81.2,11111222 
COMPS,ioos:station:USF.COMPS:C13:1,2019-05-20T12:35:00,26.0630,-83.0730,82.57,11111222 
COMPS,ioos:station:USF.COMPS:C13:1,2019-05-20T13:35:00,26.0630,-83.0730,81.73,11111222 
COMPS,ioos:station:USF.COMPS:C13:1,2019-05-20T14:35:00,26.0630,-83.0730,80.94,11111222 
COMPS,ioos:station:USF.COMPS:C13:1,2019-05-20T15:35:00,26.0630,-83.0730,78.64,11111222 
COMPS,ioos:station:USF.COMPS:C13:1,2019-05-20T16:35:00,26.0630,-83.0730,77.5,11111222 
COMPS,ioos:station:USF.COMPS:C13:1,2019-05-20T17:35:00,26.0630,-83.0730,77.05,11111222 
COMPS,ioos:station:USF.COMPS:C13:1,2019-05-20T18:35:00,26.0630,-83.0730,75.24,11111222 
COMPS,ioos:station:USF.COMPS:C13:1,2019-05-20T19:35:00,26.0630,-83.0730,75.57,11111222 
COMPS,ioos:station:USF.COMPS:C13:1,2019-05-20T20:35:00,26.0630,-83.0730,73.39,11111222 
COMPS,ioos:station:USF.COMPS:C13:1,2019-05-20T21:35:00,26.0630,-83.0730,72.49,11111222 
COMPS,ioos:station:USF.COMPS:C13:1,2019-05-20T22:35:00,26.0630,-83.0730,72.28,11111222 
COMPS,ioos:station:USF.COMPS:C13:1,2019-05-20T23:35:00,26.0630,-83.0730,70.45,11111222 
COMPS,ioos:station:USF.COMPS:C13:1,2019-05-21T00:35:00,26.0630,-83.0730,73.78,11111222 
COMPS,ioos:station:USF.COMPS:C13:1,2019-05-21T01:35:00,26.0630,-83.0730,73.04,11111222 
COMPS,ioos:station:USF.COMPS:C13:1,2019-05-21T02:35:00,26.0630,-83.0730,71.88,11111222 
COMPS,ioos:station:USF.COMPS:C13:1,2019-05-21T03:35:00,26.0630,-83.0730,73.97,11111222 
COMPS,ioos:station:USF.COMPS:C13:1,2019-05-21T04:35:00,26.0630,-83.0730,80.41,11111222 
COMPS,ioos:station:USF.COMPS:C13:1,2019-05-21T05:35:00,26.0630,-83.0730,85.04,11111222 
COMPS,ioos:station:USF.COMPS:C13:1,2019-05-21T06:35:00,26.0630,-83.0730,85.28,11111222 
COMPS,ioos:station:USF.COMPS:C13:1,2019-05-21T08:35:00,26.0630,-83.0730,84.47,11111222 
COMPS,ioos:station:USF.COMPS:C13:1,2019-05-21T09:35:00,26.0630,-83.0730,81.07,11111222 
COMPS,ioos:station:USF.COMPS:C13:1,2019-05-21T10:35:00,26.0630,-83.0730,82.43,11111222 
COMPS,ioos:station:USF.COMPS:C13:1,2019-05-21T11:35:00,26.0630,-83.0730,83.14,11111222 
COMPS,ioos:station:USF.COMPS:C13:1,2019-05-21T12:35:00,26.0630,-83.0730,82.59,11111222 
COMPS,ioos:station:USF.COMPS:C13:1,2019-05-21T13:35:00,26.0630,-83.0730,81.2,11111222 
COMPS,ioos:station:USF.COMPS:C13:1,2019-05-21T14:35:00,26.0630,-83.0730,77.82,11111222 
COMPS,ioos:station:USF.COMPS:C13:1,2019-05-21T15:35:00,26.0630,-83.0730,75.14,11111222 
COMPS,ioos:station:USF.COMPS:C13:1,2019-05-21T16:35:00,26.0630,-83.0730,75.41,11111222 
COMPS,ioos:station:USF.COMPS:C13:1,2019-05-21T17:35:00,26.0630,-83.0730,72.06,11111222 
COMPS,ioos:station:USF.COMPS:C13:1,2019-05-21T18:35:00,26.0630,-83.0730,71.49,11111222 
COMPS,ioos:station:USF.COMPS:C13:1,2019-05-21T19:35:00,26.0630,-83.0730,74.54,11111222 
COMPS,ioos:station:USF.COMPS:C13:1,2019-05-21T20:35:00,26.0630,-83.0730,76.46,11111222 
COMPS,ioos:station:USF.COMPS:C13:1,2019-05-21T21:35:00,26.0630,-83.0730,75.04,11111222 
COMPS,ioos:station:USF.COMPS:C13:1,2019-05-21T22:35:00,26.0630,-83.0730,73.84,11111222 
COMPS,ioos:station:USF.COMPS:C13:1,2019-05-21T23:35:00,26.0630,-83.0730,73.77,11111222 
COMPS,ioos:station:USF.COMPS:C13:1,2019-05-22T00:35:00,26.0630,-83.0730,74.58,11111222 
COMPS,ioos:station:USF.COMPS:C13:1,2019-05-22T01:35:00,26.0630,-83.0730,74.79,11111222 
COMPS,ioos:station:USF.COMPS:C13:1,2019-05-22T02:35:00,26.0630,-83.0730,74.85,11111222 
COMPS,ioos:station:USF.COMPS:C13:1,2019-05-22T03:35:00,26.0630,-83.0730,76.54,11111222 
COMPS,ioos:station:USF.COMPS:C13:1,2019-05-22T04:35:00,26.0630,-83.0730,79.49,11111222 
COMPS,ioos:station:USF.COMPS:C13:1,2019-05-22T05:35:00,26.0630,-83.0730,77.18,11111222 
COMPS,ioos:station:USF.COMPS:C13:1,2019-05-22T06:35:00,26.0630,-83.0730,78.61,11111222 
COMPS,ioos:station:USF.COMPS:C13:1,2019-05-22T07:35:00,26.0630,-83.0730,80.01,11111222 
COMPS,ioos:station:USF.COMPS:C13:1,2019-05-22T08:35:00,26.0630,-83.0730,85.49,11111222 
COMPS,ioos:station:USF.COMPS:C13:1,2019-05-22T09:35:00,26.0630,-83.0730,81.81,11111222 
COMPS,ioos:station:USF.COMPS:C13:1,2019-05-22T10:35:00,26.0630,-83.0730,82.19,11111222 
COMPS,ioos:station:USF.COMPS:C13:1,2019-05-22T11:35:00,26.0630,-83.0730,79.84,11111222 
COMPS,ioos:station:USF.COMPS:C13:1,2019-05-22T12:35:00,26.0630,-83.0730,78.99,11111222 
COMPS,ioos:station:USF.COMPS:C13:1,2019-05-22T13:35:00,26.0630,-83.0730,78.67,11111222 
COMPS,ioos:station:USF.COMPS:C13:1,2019-05-22T14:35:00,26.0630,-83.0730,78.11,11111222 
COMPS,ioos:station:USF.COMPS:C13:1,2019-05-22T15:35:00,26.0630,-83.0730,79.73,11111222 
COMPS,ioos:station:USF.COMPS:C13:1,2019-05-22T16:35:00,26.0630,-83.0730,79.11,11111222 
COMPS,ioos:station:USF.COMPS:C13:1,2019-05-22T17:35:00,26.0630,-83.0730,79.85,11111222 
COMPS,ioos:station:USF.COMPS:C13:1,2019-05-22T18:35:00,26.0630,-83.0730,79.43,11111222 
COMPS,ioos:station:USF.COMPS:C13:1,2019-05-22T19:35:00,26.0630,-83.0730,82.44,11111222 
COMPS,ioos:station:USF.COMPS:C13:1,2019-05-22T20:35:00,26.0630,-83.0730,79.4,11111222 
COMPS,ioos:station:USF.COMPS:C13:1,2019-05-22T21:35:00,26.0630,-83.0730,74.55,11111222 
COMPS,ioos:station:USF.COMPS:C13:1,2019-05-22T22:35:00,26.0630,-83.0730,71.09,11111222 
COMPS,ioos:station:USF.COMPS:C13:1,2019-05-22T23:35:00,26.0630,-83.0730,71.38,11111222 
COMPS,ioos:station:USF.COMPS:C13:1,2019-05-23T00:35:00,26.0630,-83.0730,71.81,11111222 
COMPS,ioos:station:USF.COMPS:C13:1,2019-05-23T01:35:00,26.0630,-83.0730,74.0,11111222 
COMPS,ioos:station:USF.COMPS:C13:1,2019-05-23T02:35:00,26.0630,-83.0730,76.16,11111222 
COMPS,ioos:station:USF.COMPS:C13:1,2019-05-23T03:35:00,26.0630,-83.0730,79.52,11111222 
COMPS,ioos:station:USF.COMPS:C13:1,2019-05-23T04:35:00,26.0630,-83.0730,76.46,11111222 
COMPS,ioos:station:USF.COMPS:C13:1,2019-05-23T05:35:00,26.0630,-83.0730,73.65,11111222 
COMPS,ioos:station:USF.COMPS:C13:1,2019-05-23T06:35:00,26.0630,-83.0730,78.21,11111222 
COMPS,ioos:station:USF.COMPS:C13:1,2019-05-23T07:35:00,26.0630,-83.0730,80.6,11111222 
COMPS,ioos:station:USF.COMPS:C13:1,2019-05-23T08:35:00,26.0630,-83.0730,83.59,11111222 
COMPS,ioos:station:USF.COMPS:C13:1,2019-05-23T09:35:00,26.0630,-83.0730,83.71,11111222 
COMPS,ioos:station:USF.COMPS:C13:1,2019-05-23T10:35:00,26.0630,-83.0730,84.0,11111222 
COMPS,ioos:station:USF.COMPS:C13:1,2019-05-23T11:35:00,26.0630,-83.0730,82.56,11111222 
COMPS,ioos:station:USF.COMPS:C13:1,2019-05-23T12:35:00,26.0630,-83.0730,83.05,11111222 
COMPS,ioos:station:USF.COMPS:C13:1,2019-05-23T13:35:00,26.0630,-83.0730,82.42,11111222 
COMPS,ioos:station:USF.COMPS:C13:1,2019-05-23T14:35:00,26.0630,-83.0730,82.4,11111222 
COMPS,ioos:station:USF.COMPS:C13:1,2019-05-23T15:35:00,26.0630,-83.0730,80.23,11111222 
COMPS,ioos:station:USF.COMPS:C13:1,2019-05-23T16:35:00,26.0630,-83.0730,77.22,11111222 
COMPS,ioos:station:USF.COMPS:C13:1,2019-05-23T17:35:00,26.0630,-83.0730,77.25,11111222 
COMPS,ioos:station:USF.COMPS:C13:1,2019-05-23T19:35:00,26.0630,-83.0730,75.45,11111222 
COMPS,ioos:station:USF.COMPS:C13:1,2019-05-23T20:35:00,26.0630,-83.0730,75.43,11111222 
COMPS,ioos:station:USF.COMPS:C13:1,2019-05-23T21:35:00,26.0630,-83.0730,75.7,11111222 
COMPS,ioos:station:USF.COMPS:C13:1,2019-05-23T22:35:00,26.0630,-83.0730,73.15,11111222 
COMPS,ioos:station:USF.COMPS:C13:1,2019-05-23T23:35:00,26.0630,-83.0730,77.81,11111222 
COMPS,ioos:station:USF.COMPS:C13:1,2019-05-24T00:35:00,26.0630,-83.0730,81.57,11111222 
COMPS,ioos:station:USF.COMPS:C13:1,2019-05-24T01:35:00,26.0630,-83.0730,83.76,11111222 